Location: Coupvray
(48.8929°N, 2.7967°E)
Time: 21:46:09
(UTC+00:00)

Cosmos 724 - Pass Details

Date: 25 October 2020
Orbit: 851 x 943 km, 65.6° (Epoch: 01 December)

Event Time Altitude Azimuth Distance (km) Brightness Sun altitude
Exits shadow 03:16:56 18° 346° (NNW) 2,075 6.2 -31.3°
Maximum altitude 03:16:57 18° 346° (NNW) 2,075 6.2 -31.3°
Drops below altitude 10° 03:21:00 10° 29° (NNE) 2,616 7.3 -30.6°
Sets 03:24:28 0° 47° (NE) 3,577 8.4 -30.1°
